Weather History for Monroe, MI

Change the Weather History Date:

Friday, April 12, 2013

  Actual Average Record
Temperature  
Mean Temperature 40 °F -  
Max Temperature 42 °F 54 °F 85 °F (1977)
Min Temperature 37 °F 35 °F 18 °F (1940)
Degree Days  
Heating Degree Days 26    
Moisture  
Dew Point 37 °F    
Average Humidity 85    
Maximum Humidity 100    
Minimum Humidity 70    
Precipitation  
Precipitation 0.00 in - - ()
Sea Level Pressure  
Sea Level Pressure 29.64 in    
Wind  
Wind Speed 11 mph (WSW)    
Max Wind Speed 23 mph    
Max Gust Speed 29 mph    
Visibility 8 miles    
Events Rain    
Averages and records for this station are not official NWS values.
T = Trace of Precipitation, MM = Missing Value Source: NWS Daily Summary

Daily Weather History Graph

Daily Weather History Graph

Search for Another Location

Airport:

Trip Planner

Search our weather history database for the weather conditions in past years. The results will help you decide how hot, cold, wet, or windy it might be!

Date:

Astronomy

Apr. 12, 2013 Rise Set
Actual Time 6:57 AM EDT 8:11 PM EDT
Civil Twilight 6:29 AM EDT 8:40 PM EDT
Nautical Twilight 5:54 AM EDT 9:15 PM EDT
Astronomical Twilight 5:18 AM EDT 9:51 PM EDT
Moon 8:04 AM EDT (4/12) 10:44 PM EDT (4/12)
Length of Visible Light 14h 11m
Length of Day
13h 13m
Waxing Crescent, 5% of the Moon is Illuminated
Apr 12
Waxing Crescent
Apr 18
First Quarter
Apr 25
Full
May 2
Last Quarter
May 9
New

Hourly Weather History & Observations

Time (EDT) Temp. Windchill Dew Point Humidity Pressure Visibility Wind Dir Wind Speed Gust Speed Precip Events Conditions
12:15 AM 39.2 °F 29.8 °F 37.4 °F 93% 29.59 in 10.0 mi East 18.4 mph 28.8 mph N/A Rain Light Rain
12:36 AM 39.2 °F 33.0 °F 37.4 °F 93% 29.58 in 7.0 mi ENE 9.2 mph - N/A Rain Rain
12:56 AM 39.2 °F 34.2 °F 37.4 °F 93% 29.58 in 7.0 mi ENE 6.9 mph - N/A Rain Rain
1:11 AM 39.2 °F 35.0 °F 37.4 °F 93% 29.57 in 3.0 mi ENE 5.8 mph - N/A Rain Heavy Rain
1:33 AM 37.4 °F 32.8 °F 37.4 °F 100% 29.57 in 3.0 mi ENE 5.8 mph - N/A Rain Rain
1:53 AM 39.2 °F 35.0 °F 37.4 °F 93% 29.57 in 5.0 mi East 5.8 mph - N/A Rain Light Rain
2:13 AM 39.2 °F 37.0 °F 37.4 °F 93% 29.56 in 7.0 mi East 3.5 mph - N/A   Drizzle
2:36 AM 39.2 °F 35.9 °F 39.2 °F 100% 29.56 in 4.0 mi NE 4.6 mph - N/A Rain Rain
2:56 AM 39.2 °F 35.9 °F 37.4 °F 93% 29.53 in 4.0 mi East 4.6 mph - N/A Rain Light Rain
3:16 AM 39.2 °F 33.6 °F 39.2 °F 100% 29.52 in 7.0 mi East 8.1 mph - N/A   Drizzle
3:56 AM 39.2 °F 35.0 °F 37.4 °F 93% 29.51 in 4.0 mi NE 5.8 mph - N/A Rain Light Rain
4:16 AM 39.2 °F 35.9 °F 37.4 °F 93% 29.53 in 5.0 mi NNW 4.6 mph - N/A Rain Light Rain
4:31 AM 39.2 °F 34.2 °F 37.4 °F 93% 29.54 in 3.0 mi WNW 6.9 mph - N/A Rain Rain
4:51 AM 39.2 °F 34.2 °F 37.4 °F 93% 29.55 in 2.0 mi NW 6.9 mph - N/A   Heavy Drizzle
5:11 AM 39.2 °F 35.9 °F 37.4 °F 93% 29.53 in 3.0 mi NNW 4.6 mph - N/A Rain Light Rain
5:32 AM 39.2 °F 34.2 °F 37.4 °F 93% 29.51 in 7.0 mi North 6.9 mph - N/A Rain Rain
5:52 AM 39.2 °F 35.0 °F 37.4 °F 93% 29.51 in 7.0 mi NNE 5.8 mph - N/A Rain Light Rain
6:12 AM 39.2 °F 37.0 °F 37.4 °F 93% 29.52 in 10.0 mi NW 3.5 mph - N/A   Light Drizzle
6:32 AM 39.2 °F 37.0 °F 37.4 °F 93% 29.52 in 10.0 mi NW 3.5 mph - N/A Rain Rain
6:52 AM 39.2 °F 37.0 °F 37.4 °F 93% 29.53 in 10.0 mi NW 3.5 mph - N/A   Overcast
7:12 AM 39.2 °F 37.0 °F 37.4 °F 93% 29.54 in 10.0 mi West 3.5 mph - N/A   Overcast
7:32 AM 39.2 °F 35.9 °F 37.4 °F 93% 29.54 in 10.0 mi WNW 4.6 mph - N/A   Overcast
7:52 AM 39.2 °F 35.0 °F 37.4 °F 93% 29.55 in 10.0 mi West 5.8 mph - N/A   Overcast
8:12 AM 39.2 °F 35.0 °F 37.4 °F 93% 29.56 in 10.0 mi West 5.8 mph - N/A   Overcast
8:32 AM 39.2 °F 35.0 °F 37.4 °F 93% 29.57 in 2.0 mi West 5.8 mph - N/A   Overcast
8:53 AM 39.2 °F 35.9 °F 39.2 °F 100% 29.57 in 1.8 mi West 4.6 mph - N/A   Overcast
9:13 AM 39.2 °F 34.2 °F 39.2 °F 100% 29.58 in 2.5 mi West 6.9 mph - N/A   Overcast
9:33 AM 39.2 °F 35.0 °F 39.2 °F 100% 29.58 in 3.0 mi WSW 5.8 mph - N/A   Overcast
9:53 AM 41.0 °F 35.2 °F 39.2 °F 93% 29.58 in 3.0 mi WSW 9.2 mph - N/A   Overcast
10:13 AM 41.0 °F 34.3 °F 39.2 °F 93% 29.59 in 7.0 mi WSW 11.5 mph - N/A   Overcast
10:53 AM 42.8 °F 36.6 °F 41.0 °F 93% 29.59 in 10.0 mi WSW 11.5 mph - N/A   Overcast
11:13 AM 42.8 °F 34.0 °F 39.2 °F 87% 29.60 in 7.0 mi WSW 20.7 mph 25.3 mph N/A   Overcast
11:33 AM 42.8 °F 35.1 °F 39.2 °F 87% 29.61 in 10.0 mi WSW 16.1 mph 24.2 mph N/A   Overcast
11:53 AM 42.8 °F 34.0 °F 39.2 °F 87% 29.62 in 10.0 mi WSW 20.7 mph - N/A   Overcast
12:14 PM 42.8 °F 34.0 °F 37.4 °F 81% 29.63 in 10.0 mi SW 20.7 mph 28.8 mph N/A   Overcast
12:34 PM 42.8 °F 34.0 °F 37.4 °F 81% 29.64 in 10.0 mi WSW 20.7 mph - N/A   Overcast
12:54 PM 42.8 °F 34.3 °F 35.6 °F 76% 29.64 in 10.0 mi WSW 19.6 mph 26.5 mph N/A   Overcast
1:14 PM 42.8 °F 34.5 °F 35.6 °F 76% 29.65 in 10.0 mi WSW 18.4 mph 21.9 mph N/A   Overcast
1:34 PM 42.8 °F 34.5 °F 35.6 °F 76% 29.66 in 10.0 mi WSW 18.4 mph 26.5 mph N/A   Overcast
1:54 PM 42.8 °F 34.8 °F 33.8 °F 70% 29.66 in 10.0 mi WSW 17.3 mph 24.2 mph N/A   Overcast
2:14 PM 42.8 °F 35.4 °F 35.6 °F 76% 29.66 in 10.0 mi WSW 15.0 mph 21.9 mph N/A   Overcast
2:34 PM 42.8 °F 34.5 °F 33.8 °F 70% 29.67 in 10.0 mi WSW 18.4 mph 25.3 mph N/A   Overcast
2:54 PM 42.8 °F 33.5 °F 33.8 °F 70% 29.68 in 10.0 mi WSW 23.0 mph 27.6 mph N/A   Overcast
3:15 PM 42.8 °F 34.5 °F 33.8 °F 70% 29.69 in 10.0 mi WSW 18.4 mph 28.8 mph N/A   Overcast
3:35 PM 42.8 °F 34.0 °F 33.8 °F 70% 29.69 in 7.0 mi WSW 20.7 mph - N/A   Overcast
3:55 PM 42.8 °F 36.2 °F 35.6 °F 76% 29.70 in 10.0 mi WSW 12.7 mph - N/A   Overcast
4:15 PM 42.8 °F 35.8 °F 35.6 °F 76% 29.70 in 10.0 mi WSW 13.8 mph 24.2 mph N/A   Overcast
4:35 PM 42.8 °F 34.5 °F 33.8 °F 70% 29.70 in 10.0 mi West 18.4 mph 26.5 mph N/A   Overcast
4:55 PM 42.8 °F 35.1 °F 35.6 °F 76% 29.71 in 10.0 mi SW 16.1 mph 24.2 mph N/A   Overcast
5:15 PM 42.8 °F 34.5 °F 35.6 °F 76% 29.72 in 10.0 mi SW 18.4 mph 23.0 mph N/A   Overcast
5:35 PM 42.8 °F 34.8 °F 35.6 °F 76% 29.72 in 10.0 mi WSW 17.3 mph 20.7 mph N/A   Overcast
5:55 PM 42.8 °F 33.8 °F 35.6 °F 76% 29.73 in 10.0 mi WSW 21.9 mph - N/A   Overcast
6:15 PM 42.8 °F 34.3 °F 35.6 °F 76% 29.73 in 10.0 mi WSW 19.6 mph 24.2 mph N/A   Overcast
6:36 PM 42.8 °F 34.8 °F 35.6 °F 76% 29.74 in 10.0 mi WSW 17.3 mph - N/A   Overcast
6:56 PM 42.8 °F 35.4 °F 35.6 °F 76% 29.75 in 10.0 mi WSW 15.0 mph 23.0 mph N/A   Overcast
7:16 PM 42.8 °F 35.4 °F 35.6 °F 76% 29.75 in 10.0 mi SW 15.0 mph 24.2 mph N/A   Overcast
7:36 PM 42.8 °F 34.8 °F 35.6 °F 76% 29.75 in 10.0 mi WSW 17.3 mph 23.0 mph N/A   Overcast
7:56 PM 42.8 °F 35.4 °F 35.6 °F 76% 29.76 in 10.0 mi SW 15.0 mph 20.7 mph N/A   Overcast
8:16 PM 42.8 °F 35.8 °F 35.6 °F 76% 29.76 in 10.0 mi SW 13.8 mph 21.9 mph N/A   Overcast
8:36 PM 42.8 °F 36.2 °F 35.6 °F 76% 29.76 in 10.0 mi SW 12.7 mph - N/A   Overcast
8:51 PM 42.8 °F 35.8 °F 37.4 °F 81% 29.76 in 10.0 mi SW 13.8 mph - N/A   Overcast
9:11 PM 42.8 °F 35.8 °F 37.4 °F 81% 29.76 in 10.0 mi SW 13.8 mph 20.7 mph N/A   Overcast
9:31 PM 42.8 °F 36.6 °F 37.4 °F 81% 29.77 in 10.0 mi SW 11.5 mph - N/A   Overcast
9:52 PM 42.8 °F 37.5 °F 37.4 °F 81% 29.77 in 10.0 mi SW 9.2 mph - N/A   Overcast
10:12 PM 42.8 °F 35.8 °F 37.4 °F 81% 29.77 in 10.0 mi SW 13.8 mph - N/A   Overcast
10:32 PM 42.8 °F 36.2 °F 37.4 °F 81% 29.78 in 10.0 mi SW 12.7 mph - N/A   Overcast
10:52 PM 42.8 °F 36.2 °F 37.4 °F 81% 29.78 in 10.0 mi SW 12.7 mph 20.7 mph N/A   Overcast
11:12 PM 42.8 °F 36.2 °F 37.4 °F 81% 29.78 in 10.0 mi SW 12.7 mph - N/A   Overcast
11:32 PM 42.8 °F 35.4 °F 39.2 °F 87% 29.79 in 10.0 mi SW 15.0 mph 21.9 mph N/A   Overcast
11:52 PM 42.8 °F 35.4 °F 39.2 °F 87% 29.79 in 10.0 mi SW 15.0 mph 19.6 mph N/A   Overcast